GFSMA_850_rhum_060.txt.gz
RH
77 70 71 70 54 48 38 52 70 69 67 72 79 67 70 69 69 65 61 75 62 53 39 31 31 31 31 31 31 31 31 30 28 26 24 23 22 22 20 19 18 18 17
75 77 70 71 60 56 44 72 76 71 71 74 76 76 75 73 66 62 59 76 63 64 54 42 38 38 38 37 37 38 37 37 37 35 33 31 29 28 28 27 26 25 24
75 65 69 71 68 78 67 70 72 70 68 73 80 78 76 76 75 68 69 54 69 81 84 68 59 48 44 41 41 43 45 46 46 44 42 40 37 36 36 36 35 35 34
80 58 77 75 67 83 69 72 68 64 63 70 77 78 77 76 81 80 77 74 66 55 82 85 81 68 55 46 45 45 46 50 52 52 51 48 44 42 42 43 43 43 42
80 78 69 69 67 77 70 70 65 60 59 65 70 74 75 77 74 83 82 79 78 78 69 70 67 64 59 59 52 51 49 50 54 56 55 53 50 48 47 48 49 49 49
88 92 83 80 72 75 66 63 61 58 57 59 64 68 67 68 70 75 74 82 84 85 84 85 80 79 75 61 58 60 55 52 54 58 59 59 56 55 54 54 54 54 54
77 76 66 61 60 64 62 63 63 61 58 56 55 60 63 62 61 60 65 74 68 81 87 85 84 91 78 69 69 71 69 64 59 58 61 63 64 62 60 59 58 58 59
78 73 66 61 62 60 59 61 62 61 58 56 54 52 56 58 58 59 61 57 57 68 70 80 86 77 75 70 80 83 82 82 75 84 64 66 68 72 72 68 65 64 63
69 66 55 48 50 62 62 67 62 61 58 55 53 47 51 55 55 54 51 57 60 64 67 70 73 84 86 84 85 82 80 85 84 77 84 89 86 76 82 87 86 81 79
62 55 59 52 42 44 49 74 71 65 64 59 55 46 55 64 69 68 61 60 64 65 64 64 70 70 70 79 87 86 81 83 81 82 81 70 89 85 83 89 98 98 96
67 62 62 58 47 49 63 82 78 73 74 76 71 59 55 61 72 73 72 72 67 67 66 65 65 65 66 70 76 83 87 75 85 87 86 83 69 75 78 85 92 98 99
66 55 53 61 83 67 61 81 83 74 71 71 80 80 73 63 55 61 72 71 74 74 73 73 69 68 71 72 73 77 80 81 76 72 90 90 84 69 66 66 73 83 92
68 60 64 62 63 73 81 74 76 74 70 69 64 65 70 68 60 68 70 73 73 72 78 81 78 68 70 72 76 82 87 82 86 84 92 96 90 76 69 71 82 84 85
77 72 69 60 55 88 81 79 66 63 63 65 65 68 71 64 59 61 66 68 82 81 81 77 73 75 73 71 67 70 84 84 84 84 90 97 92 81 77 85 86 72 72
69 85 72 63 65 72 84 78 62 60 61 69 67 60 66 68 62 63 65 63 70 85 89 85 86 80 81 84 80 87 96 95 92 82 94 98 90 85 87 88 77 78 82
67 71 68 60 68 80 83 79 62 59 60 62 65 71 67 66 64 64 64 68 79 82 93 81 80 90 96 99 96 98 99 99 88 90 99 100 96 95 89 90 88 85 82
84 81 77 70 72 79 84 79 78 70 62 66 71 72 74 72 70 74 78 78 77 75 86 85 74 74 73 83 80 84 87 88 94 94 100 94 97 91 96 89 85 73 70
85 74 70 72 71 61 64 65 72 72 72 74 80 81 79 82 88 83 90 90 82 73 84 88 79 74 68 77 87 89 99 96 96 100 96 99 95 94 89 86 79 70 71
91 91 81 76 79 70 63 64 69 77 78 80 78 83 84 83 85 85 84 83 85 80 85 86 96 84 75 82 97 98 99 100 98 97 98 99 99 94 90 84 76 67 44
86 91 89 87 82 80 82 84 84 84 84 84 84 84 82 86 86 84 88 89 98 93 78 93 100 99 94 94 100 99 98 98 100 99 99 100 98 94 86 74 55 26 12
92 93 97 93 91 90 85 82 82 85 88 90 89 89 88 89 88 88 86 90 92 95 96 99 100 100 100 100 98 99 100 100 98 100 100 99 92 73 84 60 30 20 13
92 97 97 97 97 92 88 89 90 92 93 92 93 92 91 90 87 84 93 98 97 96 100 100 100 100 100 100 100 100 99 100 99 98 100 97 95 72 49 49 47 41 39
98 97 94 100 98 94 89 94 95 96 95 95 94 93 93 90 88 89 100 100 100 100 100 100 100 100 100 100 99 99 100 100 100 96 77 54 51 49 47 39 37 36 45
95 98 99 98 96 94 95 93 97 98 95 94 95 96 100 100 98 94 100 100 100 100 100 100 98 100 99 99 100 100 100 98 98 92 91 84 46 25 24 36 42 45 45
96 96 98 99 100 98 97 97 94 94 92 92 92 92 98 100 100 100 100 100 100 100 100 100 100 100 98 100 100 100 97 96 93 71 46 33 36 38 40 50 53 52 53
92 94 94 96 96 96 95 91 94 96 94 95 100 100 100 100 100 100 100 100 100 100 99 97 100 98 100 100 98 98 96 92 73 56 41 44 57 68 73 68 64 60 64

GFSMA_850_rhum_063.txt.gz
RH
54 69 76 58 41 29 20 19 19 54 70 71 67 80 75 68 63 55 28 32 34 33 28 26 26 26 26 27 27 27 26 25 23 22 21 21 21 20 19 19 18 17 17
81 69 80 57 43 34 23 27 25 62 75 68 68 72 67 69 65 62 32 34 33 29 28 29 30 32 34 34 34 35 35 34 34 33 33 31 28 27 27 26 25 24 24
79 70 70 59 47 37 52 66 66 60 71 76 71 75 70 68 66 55 36 33 37 34 33 35 38 38 39 39 41 43 45 46 46 44 42 39 36 35 35 35 35 34 34
74 67 74 61 51 44 72 77 72 70 73 73 75 80 79 75 73 69 68 46 45 43 43 46 47 45 44 44 44 45 46 49 52 53 52 50 47 43 42 42 43 44 44
71 64 70 66 58 57 62 76 72 67 72 71 72 79 78 81 80 79 78 74 72 64 49 51 54 51 51 53 51 47 48 49 52 56 57 56 56 53 50 49 49 50 50
74 70 70 69 66 71 65 76 72 63 67 69 70 75 72 78 80 80 80 80 79 77 76 69 70 71 70 67 56 53 52 51 52 54 57 59 60 59 58 57 57 56 55
78 96 79 78 76 71 71 77 68 60 63 66 68 67 73 72 70 72 82 79 84 81 81 74 70 76 80 78 73 65 64 69 67 60 56 57 60 61 62 62 61 60 59
93 88 79 76 78 79 78 69 62 63 62 60 66 68 69 69 68 65 61 69 78 78 75 75 72 68 73 70 73 71 72 79 80 76 69 60 59 62 64 67 70 68 69
94 86 75 80 78 77 78 66 62 63 61 62 58 64 64 61 58 60 61 58 58 66 70 70 70 64 66 64 65 63 72 76 74 77 80 70 66 63 66 73 75 77 80
90 80 82 81 82 73 61 60 61 58 54 62 58 58 52 48 56 61 58 57 57 59 58 62 70 71 68 63 59 55 54 55 69 71 78 82 77 76 69 73 77 79 85
76 74 74 66 50 49 54 64 59 51 48 59 58 55 51 48 67 72 67 62 63 59 60 64 64 64 65 61 63 63 63 65 70 72 76 82 85 86 84 80 82 84 90
69 63 65 47 48 52 63 60 46 49 52 58 58 57 54 48 54 58 72 69 65 63 66 67 67 66 65 65 66 67 68 69 68 72 75 79 86 91 92 90 87 88 84
72 60 58 50 48 48 56 59 54 55 54 76 68 73 74 71 66 65 65 63 73 73 73 74 76 70 70 73 74 72 70 72 76 76 80 81 92 97 97 96 92 82 77
60 59 56 53 52 62 66 58 69 77 66 75 74 71 71 76 73 66 72 62 64 65 70 68 71 73 70 67 69 72 74 75 85 99 99 99 99 100 100 100 100 96 85
60 64 72 64 59 57 75 76 77 73 77 78 71 60 64 67 64 56 60 64 65 74 65 59 62 56 59 65 70 75 83 85 94 92 99 100 97 99 100 100 100 94 83
60 64 63 64 70 66 60 64 73 74 72 74 70 64 61 65 66 65 66 66 66 67 77 70 66 60 62 69 71 74 71 83 78 91 97 95 94 100 99 100 99 89 88
80 66 61 59 59 60 60 62 64 65 66 69 68 64 59 58 61 62 63 66 66 65 73 76 76 72 79 76 78 80 72 73 76 77 78 85 95 100 100 100 100 94 92
86 80 72 64 64 60 60 63 64 68 70 69 67 66 61 62 59 59 60 66 66 68 73 75 74 71 78 86 91 88 77 80 85 86 88 90 95 100 100 100 97 95 95
89 87 86 80 77 64 63 69 61 65 70 74 75 72 62 65 64 63 68 74 79 79 84 85 86 94 88 75 80 86 87 85 95 98 97 100 96 100 100 98 100 98 95
97 90 89 82 79 78 76 71 62 61 68 74 74 67 62 68 66 66 74 77 80 86 86 89 91 100 99 92 80 97 98 100 93 99 99 100 100 98 99 99 100 98 88
92 96 91 86 82 78 74 69 67 69 73 78 73 68 67 71 77 78 81 83 86 89 93 100 100 100 98 98 89 93 99 100 100 99 100 100 99 100 100 97 95 88 81
69 95 89 94 98 92 80 80 81 81 81 80 78 80 84 87 87 87 88 89 91 92 94 100 100 100 97 99 93 100 100 100 100 100 99 100 100 99 96 81 72 73 87
78 76 83 93 92 95 95 96 93 93 90 87 88 89 88 86 85 87 91 98 100 100 100 99 99 100 100 98 100 100 100 100 100 100 100 100 100 99 94 80 90 86 52
89 88 86 88 97 97 100 99 99 98 93 90 87 85 84 86 89 93 95 96 97 100 100 100 100 100 100 100 100 100 99 100 100 100 99 97 96 92 88 92 70 50 37
84 90 89 98 99 97 97 98 100 100 95 98 94 97 96 94 93 94 95 97 100 100 100 100 100 100 100 100 100 100 100 100 98 98 98 94 93 92 94 79 44 43 48
76 87 96 98 98 100 98 100 100 100 100 99 99 100 100 98 100 100 100 100 100 100 99 100 99 99 99 98 97 98 96 97 97 97 95 96 94 79 61 69 72 72 69

GFSMA_850_rhum_069.txt.gz
RH
83 84 85 74 44 69 74 76 81 72 74 72 68 67 70 67 64 33 36 66 67 69 59 28 21 20 19 19 18 17 16 15 15 15 15 15 15 16 16 16 16 16 16
86 69 90 64 45 54 71 63 79 73 74 74 70 69 71 70 65 41 28 30 66 72 34 23 22 22 22 22 23 23 22 21 20 20 21 22 22 22 21 21 20 20 20
92 74 83 62 43 45 46 57 76 76 75 76 72 72 72 72 70 56 33 27 28 27 27 23 23 26 28 30 32 33 34 34 33 35 36 35 34 32 30 29 29 28 28
90 68 76 45 38 33 30 44 72 73 75 80 73 73 75 74 72 67 46 36 27 26 24 25 30 32 34 36 38 41 43 45 46 47 49 49 48 46 42 38 36 36 37
92 85 69 44 32 27 26 43 65 71 78 77 74 75 77 78 72 60 51 41 33 28 27 32 33 34 37 39 40 42 45 46 49 50 53 53 52 52 51 47 44 44 45
90 89 78 47 32 26 28 32 50 71 74 76 78 77 76 76 76 63 58 42 41 38 35 36 37 38 41 42 44 46 46 46 47 50 52 53 54 55 54 55 54 53 53
86 81 82 60 40 27 22 23 51 72 75 80 80 80 82 80 82 80 76 62 62 58 55 48 47 49 53 51 58 59 58 55 51 50 51 53 54 57 56 56 56 56 57
83 77 87 79 44 28 22 22 62 72 71 77 82 81 92 91 88 87 86 83 79 79 72 69 66 61 61 63 67 72 66 66 62 60 62 65 68 64 58 57 58 58 60
89 94 91 84 51 33 36 30 62 68 58 74 79 79 89 89 87 88 87 83 81 78 75 71 67 64 64 64 66 67 67 65 62 65 66 66 69 75 76 74 66 61 62
88 96 93 91 67 40 53 60 63 66 63 71 78 82 76 67 74 81 76 79 77 73 67 66 61 56 56 55 52 59 64 65 65 65 65 70 74 75 75 78 81 81 72
92 88 94 95 89 64 59 75 79 74 71 67 66 74 69 63 57 53 64 60 68 67 66 60 53 54 54 51 52 53 54 58 62 64 65 67 70 76 74 76 88 92 92
97 97 96 94 91 84 72 67 73 76 73 67 63 67 62 61 57 57 62 55 54 56 54 55 58 58 58 58 58 58 58 60 62 65 65 65 68 71 74 83 91 92 94
100 99 94 96 95 92 82 84 87 85 80 69 63 62 69 53 49 60 68 61 57 58 64 62 60 62 58 59 60 59 59 62 64 64 65 68 72 74 75 77 86 96 100
98 93 89 92 98 95 88 76 88 86 90 76 67 63 62 52 54 54 64 58 55 54 53 49 60 56 55 61 62 62 63 61 56 55 58 64 72 76 78 80 82 84 90
100 98 90 90 98 98 92 85 88 89 88 74 64 60 60 53 56 59 60 59 58 64 61 59 60 53 53 53 55 58 60 56 57 57 60 64 69 76 80 84 90 91 92
100 96 93 86 83 89 91 94 85 82 82 77 68 65 53 51 54 62 64 59 61 71 87 62 62 58 56 57 56 58 59 56 56 57 61 65 68 69 80 86 76 75 85
96 98 88 85 86 86 82 78 73 68 66 66 67 59 49 49 56 67 67 69 70 70 77 69 67 63 64 64 60 55 58 60 60 64 69 74 78 79 85 93 88 75 77
81 81 82 82 85 83 83 74 69 63 59 58 59 66 60 59 66 69 70 68 68 65 72 74 65 62 59 56 58 60 61 65 68 68 72 80 87 88 90 80 93 90 84
94 96 95 92 83 77 75 67 65 62 56 54 58 59 58 54 55 65 68 69 69 69 75 75 68 64 63 61 66 68 68 73 74 74 81 91 94 96 100 78 88 95 99
98 97 98 96 90 83 77 75 71 63 59 59 58 56 56 58 59 62 63 62 62 69 69 73 76 76 78 81 82 90 92 88 93 94 99 99 98 99 100 99 95 100 100
92 93 99 98 98 98 89 85 78 70 67 65 65 64 62 61 60 60 63 66 72 74 77 81 95 100 97 100 97 86 90 86 85 93 96 90 93 95 99 100 99 99 100
100 100 97 94 99 100 100 99 98 92 86 86 86 80 73 70 69 67 69 77 80 89 92 96 96 99 99 100 100 84 83 96 98 96 95 97 98 100 100 97 100 99 100
100 100 100 100 98 92 89 89 92 100 100 100 95 90 88 85 82 81 78 81 86 92 99 100 100 100 100 97 99 100 97 92 100 100 100 100 98 99 100 100 100 100 100
100 100 100 100 100 99 98 96 98 100 100 100 100 95 96 92 89 88 86 91 90 94 96 99 99 99 97 100 100 100 100 100 100 100 100 100 100 100 100 100 100 100 100
85 91 98 100 100 99 100 100 100 100 100 98 99 99 99 96 93 96 98 93 89 95 98 98 98 98 100 100 100 100 100 100 100 100 100 100 100 99 98 98 98 98 97
70 78 80 82 88 92 100 98 99 100 100 99 100 100 100 100 100 100 100 100 100 100 100 100 100 100 100 100 100 100 99 100 100 100 99 98 97 97 97 98 97 96 97

GFSMA_850_rhum_072.txt.gz
RH
86 88 84 88 83 83 89 89 85 78 73 77 74 72 60 58 34 36 63 95 99 99 99 97 66 35 20 17 14 14 13 13 13 13 13 14 14 15 16 16 16 16 16
87 93 88 82 79 84 87 88 82 76 72 78 74 71 70 66 55 34 50 75 87 99 98 82 45 29 22 19 18 18 17 17 17 17 17 18 19 20 21 21 20 20 20
85 87 87 87 84 86 87 84 81 74 74 78 71 72 71 70 67 43 35 32 71 60 59 29 26 23 23 24 25 26 26 26 27 28 31 32 32 31 30 29 27 26 26
93 90 85 86 87 86 92 83 80 77 79 74 78 70 70 73 72 59 43 32 35 38 39 30 27 28 30 32 34 36 38 40 41 44 46 47 46 46 43 40 37 34 34
100 96 93 82 86 75 97 88 82 78 76 77 67 68 72 74 75 70 58 42 36 34 29 28 29 32 34 36 39 41 44 45 47 49 50 51 51 51 50 49 46 42 42
95 99 94 82 81 61 92 92 82 77 76 74 73 72 76 79 78 74 60 55 50 40 31 30 33 35 37 40 41 43 44 45 47 48 51 52 53 52 51 52 52 51 50
96 94 89 86 64 49 59 70 78 76 78 80 78 82 85 86 81 80 64 62 54 53 39 34 37 38 41 44 46 47 50 51 49 48 49 50 51 51 53 54 54 54 54
99 96 86 86 59 45 55 61 65 73 78 80 78 81 94 96 88 85 78 75 62 61 54 50 48 47 53 58 59 64 68 66 64 64 58 58 59 60 58 57 56 56 57
84 80 87 88 56 38 36 50 63 66 73 80 78 75 93 89 85 87 86 84 83 80 79 78 72 70 68 66 63 66 68 71 73 73 78 69 66 66 70 72 73 72 70
99 95 90 86 80 43 35 33 51 52 73 76 84 80 74 71 80 87 85 87 88 85 76 74 73 72 70 67 62 60 61 63 68 68 74 76 77 68 67 69 74 78 84
100 100 97 84 99 80 46 26 25 46 76 73 73 79 80 75 70 61 45 44 49 60 53 51 61 59 58 58 58 54 51 51 55 60 64 67 68 73 73 70 70 72 73
100 100 98 100 93 88 60 32 34 42 73 68 63 64 74 80 72 52 47 42 51 56 54 53 56 58 54 54 56 56 56 56 57 60 62 64 66 68 69 71 71 75 79
99 99 99 97 92 95 80 48 62 55 53 67 66 71 71 74 70 45 50 53 59 55 60 58 57 62 63 60 59 52 56 59 59 60 64 67 68 68 68 70 73 76 80
98 100 100 97 94 93 93 82 56 72 73 72 70 77 75 67 69 60 56 59 55 52 62 64 56 51 51 48 55 51 54 54 56 57 58 57 56 57 61 65 71 76 78
99 95 100 100 97 94 99 93 87 79 82 82 81 86 81 72 69 63 61 54 57 64 65 59 58 53 53 55 58 54 54 56 55 56 58 56 59 59 60 63 67 73 80
99 99 100 100 100 100 99 97 97 87 90 87 84 94 87 79 82 76 62 62 62 62 68 62 59 53 58 64 59 60 59 58 60 60 59 60 62 62 64 67 71 74 78
100 99 98 98 98 96 95 100 100 97 90 76 85 89 93 78 75 71 58 62 63 60 69 65 65 66 68 65 63 60 58 59 59 57 58 59 60 63 68 72 77 81 85
100 100 100 100 96 95 89 86 89 92 93 96 83 82 80 73 73 63 64 63 55 55 68 70 64 65 64 61 63 65 64 59 59 57 58 63 63 67 74 75 78 83 94
86 95 98 99 100 98 96 91 87 86 86 85 80 77 76 75 70 65 71 69 55 54 62 69 68 65 67 65 64 65 63 61 64 71 68 67 71 80 81 84 86 90 96
84 87 88 90 88 91 97 95 91 90 90 85 78 73 74 70 65 64 62 60 62 60 61 78 84 74 67 64 73 69 67 58 59 66 70 76 82 84 89 90 88 88 95
94 91 90 91 94 98 100 100 99 97 88 87 87 79 72 69 64 60 60 60 61 65 71 85 94 92 90 85 83 70 85 77 74 79 76 77 80 84 90 89 91 94 96
100 100 100 100 100 98 95 94 95 99 100 100 94 84 78 76 69 63 63 63 66 85 87 86 90 93 95 96 96 99 98 100 100 94 85 84 86 86 91 96 97 100 100
100 100 100 100 100 99 99 100 100 100 100 98 96 98 98 94 92 90 87 89 93 94 89 88 97 100 100 99 100 100 100 98 98 99 99 99 100 100 100 100 100 100 100
97 99 100 100 100 100 100 100 100 100 100 100 100 100 100 99 99 99 100 100 99 95 95 98 100 100 100 99 100 100 99 100 99 100 100 100 100 100 100 100 100 98 100
85 93 97 99 100 100 100 100 100 100 100 100 100 100 99 99 99 100 100 100 100 100 99 100 100 100 99 98 100 100 100 99 100 100 100 100 100 100 99 98 100 100 99
81 85 92 96 97 99 99 94 95 100 100 100 100 100 100 100 98 98 100 100 100 100 99 100 100 100 100 100 98 100 100 100 100 99 99 99 100 98 97 95 96 98 97

GFSMA_850_rhum_075.txt.gz
RH
78 67 89 90 96 90 93 91 86 80 79 74 79 73 71 57 50 74 96 99 99 98 96 99 69 41 26 48 29 15 14 12 12 12 12 12 14 14 15 16 16 16 16
83 73 89 88 97 88 87 86 84 85 81 77 75 72 63 54 48 74 86 97 99 98 97 98 85 58 42 24 17 15 14 14 14 14 15 16 17 18 19 20 20 19 19
91 89 91 94 98 84 91 90 92 91 79 82 76 69 70 66 57 54 72 96 99 99 99 99 66 68 61 29 22 20 20 20 20 21 23 25 28 29 29 28 26 25 24
97 100 91 94 100 82 98 92 96 84 78 82 78 69 73 71 68 46 52 82 96 98 99 83 55 52 41 37 28 28 30 31 33 37 39 42 43 44 42 39 36 34 32
99 99 97 92 96 82 99 93 91 81 79 82 75 75 76 75 73 60 48 59 83 93 94 70 41 30 43 36 35 38 40 42 44 45 47 49 48 48 47 46 45 43 41
100 99 98 92 96 97 99 95 86 82 78 78 78 78 78 82 78 73 68 60 65 65 64 71 65 54 39 38 39 42 44 45 46 48 49 50 51 51 50 49 49 48 48
100 100 98 97 96 94 85 89 87 82 83 81 80 83 87 85 81 81 78 70 60 57 56 53 46 44 42 42 43 43 44 47 47 47 48 50 51 52 53 52 51 51 51
100 99 99 99 93 94 84 92 89 84 84 81 82 97 100 96 90 82 83 63 57 49 45 43 42 42 44 46 46 48 50 56 62 64 59 52 53 54 56 55 54 54 54
100 99 100 93 86 89 71 86 85 85 85 80 80 86 97 86 88 86 83 76 74 55 52 50 48 49 52 52 56 59 62 67 72 73 76 69 63 62 64 67 70 72 72
100 100 100 96 90 88 65 64 81 85 77 76 84 79 73 71 86 88 81 80 84 74 73 76 73 72 73 72 67 62 60 66 69 73 76 79 79 73 73 72 73 74 74
94 94 83 77 87 81 56 44 49 72 76 76 78 85 77 73 68 66 81 78 83 81 60 63 59 60 64 64 60 54 53 54 57 62 63 66 74 77 73 70 68 68 69
100 100 93 86 82 85 52 42 46 59 70 72 75 77 76 74 73 69 63 60 63 57 43 38 44 49 48 54 53 44 46 52 57 58 58 60 62 64 67 71 73 70 71
99 100 99 99 88 96 84 53 50 43 54 62 63 77 75 71 69 65 68 58 45 43 44 45 54 58 59 58 43 52 60 60 60 60 60 60 61 62 65 67 68 70 72
98 100 100 98 100 91 90 96 60 39 34 36 53 74 73 71 65 68 70 68 46 50 57 57 54 51 59 48 51 51 52 52 53 53 55 58 59 61 64 64 63 64 66
93 90 100 100 100 99 96 97 80 52 49 51 50 75 65 78 73 76 79 70 57 57 58 58 52 45 43 51 51 54 55 59 56 54 54 55 57 58 60 63 63 62 64
100 98 98 94 99 100 99 100 100 76 58 72 77 65 68 75 83 80 82 80 73 69 66 61 67 58 53 53 57 58 58 58 60 57 58 58 59 59 58 59 59 60 64
97 99 96 99 99 100 100 99 99 100 89 64 74 81 72 70 76 65 79 86 80 87 90 68 67 63 67 54 57 58 58 65 65 61 60 62 58 54 54 56 61 65 66
99 98 97 97 96 98 100 100 93 92 94 96 92 88 88 88 88 88 89 85 81 80 76 79 65 63 78 58 54 61 58 59 63 66 66 64 64 62 61 66 63 65 64
99 98 100 99 98 99 97 90 92 94 92 93 92 94 92 87 92 91 83 81 77 74 74 72 62 74 78 80 81 58 52 58 62 58 58 53 54 55 56 57 70 70 81
97 96 94 92 94 95 91 89 91 90 89 88 88 88 89 89 88 84 81 81 78 77 83 90 86 70 81 82 89 90 88 84 76 61 53 50 52 57 59 69 72 76 81
98 97 96 94 93 92 91 90 89 90 94 96 98 98 94 89 87 85 82 77 78 92 95 100 98 96 91 90 93 91 98 90 86 85 77 81 74 73 73 71 73 76 79
100 100 100 100 100 100 97 99 100 100 100 98 97 97 96 96 91 88 87 85 88 97 99 100 99 96 93 93 92 92 92 95 97 97 100 98 100 99 94 87 82 83 83
100 100 100 100 100 100 99 100 100 100 100 100 100 100 100 100 100 100 99 100 100 100 100 100 100 99 99 98 99 99 98 99 98 94 100 100 100 100 100 100 100 99 99
98 100 100 100 100 100 100 99 99 99 100 100 100 100 100 100 100 100 100 100 100 100 100 100 100 100 99 98 100 100 100 100 100 100 100 100 100 100 100 100 100 100 100
94 99 100 99 100 100 99 100 97 99 100 100 98 100 99 98 98 99 100 100 100 100 99 98 100 100 100 100 100 100 100 100 100 100 100 99 99 100 99 98 99 98 100
97 99 100 100 100 99 98 92 80 81 87 92 97 100 100 100 98 99 100 100 100 100 100 100 100 100 100 100 99 99 99 99 100 100 100 99 98 98 96 96 96 96 96

GFSMA_850_rhum_078.txt.gz
RH
80 66 70 81 80 95 88 95 92 98 100 99 97 96 92 87 88 78 93 92 92 94 97 100 98 76 50 53 36 23 15 12 11 10 10 12 13 14 14 14 14 15 15
87 70 73 86 89 90 93 91 96 97 98 92 97 96 92 86 87 79 79 96 92 95 97 99 98 99 82 69 38 17 13 13 13 13 14 14 15 16 17 17 18 18 18
83 76 74 79 91 92 95 90 97 96 95 90 94 97 92 88 81 83 77 86 97 96 94 98 98 99 95 53 26 16 15 15 16 16 17 17 19 21 22 23 22 22 22
96 90 80 89 95 98 94 93 98 98 91 85 92 88 86 88 84 85 80 79 98 99 98 98 99 100 98 40 22 20 21 22 23 23 26 28 32 33 35 36 33 31 30
100 98 90 93 90 99 96 98 99 93 90 89 86 84 86 88 90 81 82 84 84 86 93 98 99 100 98 94 35 31 32 33 36 38 41 43 44 45 44 43 42 40 38
99 99 99 93 88 100 84 98 97 94 86 81 83 86 92 91 90 85 84 83 85 86 82 93 96 96 92 85 44 40 44 44 44 45 47 48 48 48 46 46 47 46 45
100 99 98 100 100 96 89 94 98 94 92 91 87 93 96 99 100 99 99 90 85 88 88 86 84 83 70 43 44 41 44 53 46 46 47 48 49 49 49 50 50 50 50
96 100 94 99 100 100 93 93 97 97 88 94 83 84 98 100 100 100 99 93 91 86 86 89 89 89 88 85 39 40 41 44 55 54 53 50 48 49 49 51 52 52 53
92 100 99 98 100 98 94 99 98 96 90 92 80 70 78 72 89 98 99 98 93 96 87 91 89 81 70 75 61 40 46 51 57 65 74 68 64 60 59 63 65 66 67
94 99 96 100 98 100 99 91 100 95 87 95 88 72 65 57 70 86 95 98 84 71 71 46 54 39 38 44 49 46 49 52 58 64 68 74 83 74 71 70 72 73 71
94 100 99 100 99 92 96 86 98 99 94 86 89 84 84 84 71 61 70 91 98 79 64 53 58 40 38 56 60 60 54 55 54 58 62 64 67 72 77 71 69 68 68
96 100 100 100 95 90 87 90 81 85 93 96 89 87 82 78 74 65 62 67 78 77 57 60 54 52 43 42 44 43 51 47 50 54 55 55 58 58 58 62 65 65 65
100 95 96 99 92 94 95 92 66 67 84 92 94 86 86 82 72 72 64 57 65 68 81 61 53 54 44 42 54 58 55 45 44 55 58 60 60 59 59 60 63 64 66
99 98 99 99 92 85 89 82 64 57 53 64 81 92 91 71 76 81 74 73 57 61 62 66 54 42 44 47 50 51 54 56 56 53 50 54 59 59 60 61 61 63 65
93 90 96 100 100 100 90 93 68 55 53 61 68 63 67 66 77 90 85 75 70 71 59 56 66 66 54 49 50 48 46 47 53 57 55 54 55 56 57 58 59 60 62
93 94 93 95 100 100 98 98 94 85 81 65 47 47 52 52 81 95 84 72 80 83 76 69 62 61 68 57 51 49 50 53 56 59 56 55 56 56 59 61 61 58 56
93 90 95 97 99 99 100 88 87 87 91 80 53 50 50 59 56 65 69 71 79 83 88 90 78 77 72 78 72 57 54 56 56 54 58 59 58 55 57 61 61 60 60
94 96 97 98 94 98 100 100 100 100 99 99 80 57 55 61 74 79 73 73 73 77 81 69 77 71 72 68 71 80 82 76 69 62 49 52 53 55 58 61 61 60 58
97 99 99 98 98 99 100 99 100 100 99 96 97 98 69 67 74 75 76 80 84 83 85 91 95 88 77 79 82 79 79 79 85 85 66 53 50 46 46 51 57 57 58
99 98 98 99 98 98 98 99 99 98 96 91 95 88 96 94 95 96 99 97 96 98 97 99 92 89 87 80 81 81 82 81 86 81 83 82 84 75 70 69 69 76 69
99 100 99 99 99 100 99 98 99 99 97 92 88 88 90 91 94 96 99 99 99 98 98 97 98 94 94 91 89 86 88 85 87 89 91 90 91 94 99 98 96 83 74
99 100 100 100 99 100 99 99 95 96 97 99 99 99 99 100 100 99 98 96 95 97 99 100 99 99 93 83 88 90 89 90 92 87 93 98 99 99 99 100 98 94 87
100 100 100 100 100 100 99 99 99 100 100 100 100 100 100 100 100 100 100 100 100 99 100 100 100 100 100 100 100 99 100 100 100 99 99 100 99 100 100 100 100 100 100
100 100 100 100 100 99 100 100 100 100 100 99 99 99 99 100 100 99 99 100 100 99 98 99 100 100 99 98 100 100 100 100 100 100 100 100 100 100 100 100 100 99 99
99 99 100 100 100 99 99 97 96 97 97 99 100 100 100 100 99 99 100 100 100 100 100 100 100 100 100 100 100 100 100 100 100 100 100 100 99 99 100 99 99 97 97
96 100 100 100 100 95 81 76 76 82 86 94 100 100 99 99 99 98 98 99 100 100 100 100 100 100 100 100 100 99 98 99 100 100 100 100 100 99 97 98 96 97 98

GFSMA_850_rhum_084.txt.gz
RH
90 85 83 73 76 76 73 85 82 77 64 83 82 76 79 67 69 70 69 70 65 69 92 92 96 94 70 43 55 33 24 15 17 19 16 11 8 8 9 10 10 10 10
94 89 89 82 75 73 83 85 78 77 82 85 74 87 68 71 74 71 70 73 66 85 85 99 98 99 98 50 42 27 22 23 19 12 10 10 10 12 13 14 14 14 15
98 96 92 89 83 87 89 79 82 88 92 90 84 74 68 69 71 73 71 70 83 88 85 94 95 98 69 95 72 30 23 17 13 11 12 13 14 15 16 16 17 18 18
99 99 98 94 89 77 75 81 88 96 96 89 83 75 73 74 64 72 73 74 83 89 87 93 90 93 92 99 75 29 18 14 13 14 14 15 16 18 19 21 22 22 22
94 94 95 91 84 74 78 82 90 97 100 96 78 72 76 67 74 75 73 78 71 87 86 86 88 96 94 98 55 18 15 14 15 17 18 20 22 26 31 34 35 33 32
92 87 96 93 86 73 83 91 98 100 94 97 71 73 69 70 72 70 73 76 78 70 71 83 88 92 93 97 50 18 16 18 21 25 28 32 36 40 41 42 41 40 39
90 95 99 95 90 84 78 86 99 94 91 86 68 72 70 73 66 70 73 75 75 74 80 67 71 67 54 91 49 22 24 28 32 36 38 41 43 44 44 43 43 44 44
90 100 97 98 92 92 89 90 94 97 99 85 67 74 76 75 70 70 70 70 79 76 84 76 79 78 44 49 32 28 31 36 39 40 41 43 44 45 45 46 46 47 46
92 92 97 98 99 99 99 90 99 92 86 90 74 73 83 85 72 73 74 72 71 75 73 82 86 82 79 76 70 36 34 37 38 38 40 44 45 44 45 45 46 49 49
96 95 97 90 98 83 98 97 99 89 87 92 77 71 62 64 74 84 76 73 75 75 74 76 72 78 81 83 84 68 36 34 33 35 41 47 51 53 53 52 50 52 56
94 98 98 98 91 91 96 100 100 97 92 87 80 77 62 65 62 62 86 83 77 83 80 76 79 80 79 81 83 82 47 38 33 35 40 43 46 52 55 57 58 61 61
90 92 89 94 100 99 94 100 100 87 86 90 81 72 74 64 68 74 71 76 69 76 71 67 69 78 79 72 58 62 59 43 41 48 47 46 47 48 46 45 44 48 51
86 85 79 85 96 100 96 97 97 94 89 86 80 80 78 71 65 70 80 74 77 75 79 81 72 60 56 60 52 50 50 45 43 44 48 54 52 49 46 46 53 58 59
87 87 83 96 100 100 99 100 100 92 92 90 86 78 75 76 72 68 67 68 70 71 74 75 72 68 58 53 46 46 46 49 51 47 51 56 54 60 57 52 59 57 57
86 90 88 98 99 100 99 100 99 95 90 81 89 80 74 65 68 74 75 70 81 75 71 64 70 68 64 64 63 62 54 48 45 47 50 50 52 56 58 57 57 55 58
95 92 92 97 100 100 100 100 99 91 91 93 89 85 83 78 78 77 77 72 88 85 81 72 66 70 76 72 72 73 70 64 60 62 56 57 55 54 54 55 54 55 57
94 94 95 93 92 98 99 95 96 97 92 91 96 89 85 77 66 79 90 71 76 78 78 65 66 60 60 61 62 66 75 76 76 73 74 72 60 53 53 52 51 53 52
88 91 95 96 97 97 100 99 98 97 98 100 84 76 74 77 76 82 82 80 80 76 78 70 65 73 80 74 75 73 70 70 72 72 74 73 69 64 60 53 56 54 48
83 92 93 98 96 96 100 100 100 98 96 96 94 93 83 80 88 86 90 92 76 77 85 62 58 62 62 62 64 67 69 68 68 64 63 70 71 66 66 77 75 70 73
89 93 99 100 100 99 100 100 100 100 100 100 100 100 100 100 100 98 98 96 88 80 72 64 60 61 64 76 91 92 89 79 78 75 77 86 92 87 86 84 83 82 81
99 96 99 99 100 100 100 99 100 100 100 99 99 100 100 100 98 99 100 100 99 100 99 100 96 94 99 100 100 100 100 100 100 100 100 100 100 100 100 99 100 100 98
96 100 100 100 100 99 99 100 100 100 100 100 100 100 100 100 100 100 100 100 99 100 100 99 99 100 100 99 98 97 96 98 98 98 100 99 100 100 100 99 98 97 97
97 99 100 100 100 100 100 100 97 94 98 100 100 100 99 98 99 100 100 100 100 100 100 100 100 100 100 100 99 99 100 100 100 99 99 98 97 97 97 98 94 92 92
100 100 100 100 100 100 100 100 100 100 97 99 100 100 100 100 100 100 100 100 100 100 100 100 100 100 100 99 99 99 98 98 98 97 96 98 97 98 100 100 100 100 100
100 98 100 100 100 100 99 100 100 100 100 100 100 100 100 100 99 97 95 94 93 98 100 100 99 100 99 99 98 96 90 89 88 90 92 95 99 100 100 99 100 100 97
100 98 98 100 98 97 90 93 92 98 100 100 100 99 96 96 93 87 87 90 99 100 100 99 99 99 97 88 79 72 69 68 74 90 90 87 92 93 96 96 90 86 84

GFSMA_850_rhum_087.txt.gz
RH
82 80 82 83 75 70 70 78 76 74 66 72 69 67 78 79 77 77 76 74 70 67 53 52 97 99 99 90 80 47 30 29 21 12 10 15 15 10 8 7 7 7 8
86 87 88 87 88 74 76 72 67 68 71 71 78 70 76 79 80 74 73 71 72 67 56 37 91 90 85 74 68 55 35 19 17 16 17 12 9 8 9 10 11 12 12
89 93 92 86 85 77 81 79 82 81 80 86 88 75 78 76 77 74 74 69 73 71 69 88 97 98 98 93 67 31 41 24 22 16 11 9 9 11 13 14 15 15 16
90 97 96 93 87 84 76 82 88 85 88 90 94 82 81 78 72 70 69 68 67 74 82 98 98 98 99 98 95 36 21 19 15 11 10 11 13 14 15 16 18 19 19
95 99 98 96 94 87 80 83 86 85 89 93 94 90 82 75 69 66 69 70 68 70 78 87 92 90 91 99 65 38 20 14 12 11 12 13 15 17 20 23 26 27 27
99 99 98 90 94 86 86 85 83 86 92 100 97 92 77 67 66 72 68 73 74 66 74 85 88 91 93 95 33 23 15 14 14 14 16 19 23 27 32 37 38 38 36
97 99 99 94 90 89 84 85 81 93 94 100 100 93 76 63 66 76 73 72 75 76 63 77 86 84 72 71 31 18 15 16 17 20 25 29 34 38 41 40 40 40 40
97 98 91 91 90 92 80 78 85 96 100 96 97 89 79 74 70 73 72 74 76 77 71 70 69 74 80 56 37 20 19 26 28 30 34 37 40 42 43 43 43 43 44
90 90 90 90 89 96 87 85 87 90 96 96 91 78 81 77 71 72 76 74 75 78 74 79 78 83 81 50 44 33 28 31 39 41 41 41 42 43 43 44 46 46 47
94 94 93 92 94 89 87 97 92 98 95 93 93 80 64 67 73 77 70 73 73 74 78 78 80 83 80 76 74 76 68 36 38 41 39 37 41 45 46 45 45 45 46
96 98 94 88 94 97 100 100 100 95 94 92 87 81 68 62 68 68 74 74 72 73 76 76 74 74 74 74 78 78 73 66 44 37 36 38 41 44 51 55 56 56 57
99 97 100 99 95 89 96 98 100 97 100 92 86 85 73 58 66 65 64 69 64 69 73 77 74 79 78 79 76 74 78 77 64 55 43 42 46 49 48 49 50 51 52
99 98 96 95 92 98 94 100 100 100 92 90 92 85 79 62 72 70 70 69 67 71 75 81 75 72 78 77 72 65 62 60 45 41 45 53 57 56 56 57 60 59 55
95 91 85 80 88 96 100 100 100 100 96 96 97 92 80 68 81 72 75 72 86 84 79 73 73 74 68 64 56 55 52 47 47 49 51 52 52 55 60 57 59 63 62
86 93 91 80 84 99 100 100 100 99 99 92 94 94 83 88 84 73 71 73 75 78 85 84 84 79 74 70 72 77 72 67 68 66 61 57 54 55 54 53 54 62 62
88 92 89 89 92 98 100 99 100 100 98 94 92 91 90 93 82 76 78 80 76 73 69 63 69 76 76 83 86 81 81 75 68 64 64 61 65 63 63 66 61 58 56
89 89 95 94 96 100 100 100 100 98 100 99 100 93 98 94 80 76 72 82 84 82 80 65 73 73 76 68 66 73 73 74 71 70 69 69 70 74 74 75 77 72 65
83 88 92 98 100 97 99 100 100 100 99 98 91 97 96 92 85 83 74 57 59 70 77 81 74 80 77 62 61 64 74 75 76 73 69 68 71 83 87 91 89 86 80
86 84 95 96 100 100 99 100 100 99 96 97 96 92 99 88 86 69 64 80 90 92 93 91 81 71 64 56 55 62 66 64 75 83 92 98 92 88 85 81 83 82 82
89 95 95 99 98 99 100 100 100 100 100 100 100 100 100 99 96 87 87 96 100 100 100 99 84 84 79 69 67 72 86 97 96 98 99 100 100 100 100 100 97 94 93
84 93 99 99 99 98 100 100 99 99 100 100 100 100 100 98 99 100 99 100 99 96 98 99 97 92 97 100 100 99 99 98 99 98 100 100 100 100 100 99 93 100 100
90 94 100 100 100 100 100 100 99 100 100 99 99 100 99 100 99 100 100 100 100 100 100 100 100 100 99 100 100 99 100 99 100 100 100 100 100 100 99 99 98 95 97
100 100 100 100 100 100 100 100 100 100 100 100 100 100 100 100 100 100 99 100 100 100 100 100 100 100 100 100 99 100 100 100 99 99 99 99 99 96 100 100 99 99 97
100 99 100 100 99 99 100 100 100 100 100 100 100 100 100 100 100 99 100 100 100 100 100 100 100 100 100 100 100 100 99 95 94 94 94 96 99 100 100 100 100 100 98
100 100 100 100 100 99 100 100 100 100 100 100 100 100 100 100 100 100 100 99 99 100 100 99 99 98 98 96 93 84 79 80 85 91 90 90 93 93 90 90 95 91 86
100 100 100 100 100 98 100 99 100 100 100 100 100 100 99 97 96 96 95 99 100 100 99 99 99 96 91 83 76 73 70 67 65 76 75 76 77 78 86 90 87 81 79